{"data":{"norad_id":61981,"intl_designator":"2024-210Y","name":"STARLINK-32522","alt_names":[],"object_type":"PAYLOAD","status":"ACTIVE","operator":null,"country":"US","launch_date":"2024-11-14","launch_site_code":"AFETR","launch_vehicle":null,"mission":null,"orbit_class":"UNKNOWN","rcs_meters":null,"size_class":null,"mass_kg":null,"dimensions":null,"purposes":["comms"],"wikipedia_slug":null,"has_3d_model":false,"image_url":null,"decayed_at":null,"tle_current":{"epoch":"2026-05-24T22:47:21.820704Z","epoch_age_seconds":86136,"freshness":"FRESH","line1":"1 61981U 24210Y   26144.94955811  .00014173  00000+0  52339-3 0  9993","line2":"2 61981  42.9987 109.0848 0000675 242.9691 117.1092 15.27590568 86549","mean_motion":15.27590568,"eccentricity":6.75e-5,"inclination_deg":42.9987,"raan_deg":109.0848,"arg_perigee_deg":242.9691,"mean_anomaly_deg":117.1092,"bstar":0.00052339,"rev_number":8654,"period_min":94.266096568357,"perigee_km":482.55432390277,"apogee_km":483.48057975377,"semimajor_km":6861.1544518283,"source":"CELESTRAK","updated_at":"2026-05-25T13:38:19.517669Z"}}}